Regional Weather Roundup
Issued by NWS State College, PA

Home | Current Version | Previous Version | Graphics & Text | Print | Product List | Glossary Off
Versions: 1 2 3 4 5 6 7 8 9 10 11 12 13 14 15 16 17 18 19 20 21 22 23 24 25 26 27 28 29 30 31 32 33 34 35 36 37 38 39 40 41 42 43 44 45 46 47 48 49 50

000
ASUS41 KCTP 020503
RWRCTP

REGIONAL WEATHER ROUNDUP
NATIONAL WEATHER SERVICE STATE COLLEGE PA
100 AM EDT WED SEP 02 2015

Note: "fair" indicates few or no clouds below 12,000 feet with no
significant weather and/or obstructions to visibility.

* = STATION THAT DOES NOT REPORT PRECIPITATION /E.G. RAIN...SNOW...ETC/
    THUNDER OR FOG.

PAZ002>004-007>009-013>016-020>023-029>032-020600-
WESTERN PENNSYLVANIA

CITY           SKY/WX    TMP DP  RH WIND       PRES   REMARKS
ERIE           CLEAR     70  64  81 S6        30.08S
MEADVILLE      CLEAR     68  63  84 CALM      30.13S
FRANKLIN*      PTCLDY    66  63  88 CALM      30.15S
NEW CASTLE     FAIR      69  69 100 CALM      30.12S FOG
BEAVER COUNTY  NOT AVBL
BUTLER*        CLEAR     68  64  88 NE3       30.13F
PITTSBURGH INT PTCLDY    75  66  73 CALM      30.11S
PITTSBURGH     CLEAR     76  62  62 W3        30.11S
INDIANA*       CLOUDY    68  66  94 CALM      30.16S
LATROBE        NOT AVBL
WASHINGTON CO* CLEAR     64  64 100 CALM      30.13S
$$

PAZ004>006-010>012-017>019-024>028-033>037-041-042-045-046-049>053-020600-
CENTRAL PENNSYLVANIA

CITY           SKY/WX    TMP DP  RH WIND       PRES   REMARKS
BRADFORD       FOG       58  57  97 CALM      30.15F VSB 1/2
DUBOIS         CLEAR     70  63  78 CALM      30.14S
CLEARFIELD     CLEAR     64  61  90 CALM      30.13F
JOHNSTOWN      PTCLDY    70  61  73 SW5       30.17S
ALTOONA        CLEAR     65  62  90 CALM      30.13S FOG
STATE COLLEGE  PTCLDY    67  65  91 CALM      30.11S
WILLIAMSPORT   CLEAR     69  66  90 W3        30.06S
SELINSGROVE    CLEAR     64  62  93 CALM      30.07S FOG
FT INDIANTOWN  CLEAR     67  65  93 CALM      30.06F
CAPITAL CITY   CLEAR     71  65  81 W3        30.06F
HARRISBURG     PTCLDY    71  66  84 CALM      30.06S
YORK           CLEAR     63  62  97 CALM      30.07S FOG
$$

PAZ038>040-043-044-047-048-054-055-060>062-067>071-020600-
EASTERN PENNSYLVANIA

CITY           SKY/WX    TMP DP  RH WIND       PRES   REMARKS
SCRANTON       CLEAR     68  61  78 E6        30.08S
MOUNT POCONO   CLEAR     60  58  92 CALM      30.13S
ALLENTOWN      CLEAR     68  64  87 N5        30.06S
QUAKERTOWN*    CLEAR     66  64  94 CALM      30.08S
READING        CLEAR     71  66  84 W3        30.05S
LANCASTER      CLEAR     69  64  84 W3        30.06S
COATESVILLE    CLEAR     68  68 100 CALM      30.08S
POTTSTOWN      CLEAR     68  66  93 CALM      30.08S
BLUE BELL      CLEAR     68  66  94 CALM      30.05S
DOYLESTOWN     CLEAR     68  66  93 CALM      30.06S
WILLOW GROVE   NOT AVBL
NORTH PHILA    CLEAR     74  67  78 CALM      30.06F
PHILADELPHIA   PTCLDY    76  71  85 CALM      30.05S
$$



USA.gov is the U.S. government's official web portal to all federal, state and local government web resources and services.